カタログに戻る

STARLINK-31781

運用中通信VLEO
NORAD 59632·PAYLOAD·🇺🇸 United States

打ち上げ May 3, 2024 から Cape Canaveral Space Force Station

Loading…

次のパス (今後24時間)

TLE

最新Source: CelesTrak SupGP

元期: Sep 15, 2026, 02:05 UTC

1 59632C 24082B   26258.08729167  .00046128  00000+0  16713-2 0  2582
2 59632  43.0015 136.0843 0001429 278.7419 212.6293 15.27545246    16

AllMySatでSTARLINK-31781をリアルタイム追跡

Download on the App Store